Location: Newark
(33.6333°S, 78.8500°W)
Time: 20:05:26
(UTC+00:00)

Courier 1B - Pass Details

Date: 23 September 2019
Orbit: 962 x 1209 km, 28.3° (Epoch: 22 October)

Event Time Altitude Azimuth Distance (km) Brightness Sun altitude
Rises 01:19:34 0° 272° (W) 3,982 11.8 -26.9°
Reaches altitude 10° 01:22:30 10° 277° (W) 2,985 10.8 -27.5°
Maximum altitude 01:29:32 51° 350° (N) 1,318 8.0 -28.9°
Enters shadow 01:29:51 51° 359° (N) 1,320 8.0 -28.9°
Drops below altitude 10° 01:36:07 10° 64° (ENE) 2,803 - -30.1°
Sets 01:38:48 0° 68° (ENE) 3,722 - -30.7°
